GFSNW_prec_precacc12_213.txt.gz
Total_Precipitation_Accumulation
0.00 0.00 0.00 0.00 0.00 0.00 0.00 0.00 0.00 0.00 0.00 0.00 0.00 0.00 0.00 0.00 0.00 0.00 0.00 0.00 0.00 0.00 0.00 0.00 0.00 0.00 0.00 0.00 0.00 0.00 0.00 0.00 0.00 0.00 0.00 0.00 0.00 0.00 0.00 0.00 0.00 0.00 0.00 0.00
0.00 0.00 0.00 0.00 0.00 0.00 0.00 0.00 0.00 0.00 0.00 0.00 0.00 0.00 0.00 0.00 0.00 0.00 0.00 0.00 0.00 0.00 0.00 0.00 0.00 0.00 0.00 0.00 0.00 0.00 0.00 0.00 0.00 0.00 0.00 0.00 0.00 0.00 0.00 0.00 0.00 0.00 0.00 0.00
0.00 0.00 0.00 0.00 0.00 0.00 0.00 0.00 0.00 0.00 0.00 0.00 0.00 0.00 0.00 0.00 0.00 0.00 0.00 0.00 0.00 0.00 0.00 0.00 0.00 0.00 0.00 0.00 0.00 0.00 0.00 0.00 0.00 0.00 0.00 0.00 0.00 0.00 0.00 0.00 0.00 0.00 0.00 0.00
0.00 0.00 0.00 0.00 0.00 0.00 0.00 0.00 0.00 0.00 0.00 0.00 0.00 0.00 0.00 0.00 0.00 0.00 0.00 0.00 0.00 0.00 0.00 0.00 0.00 0.00 0.00 0.00 0.00 0.00 0.00 0.00 0.00 0.00 0.00 0.00 0.00 0.00 0.00 0.00 0.00 0.00 0.00 0.00
0.00 0.00 0.00 0.00 0.00 0.00 0.00 0.00 0.00 0.00 0.00 0.00 0.00 0.00 0.00 0.00 0.00 0.00 0.00 0.00 0.00 0.00 0.00 0.00 0.00 0.00 0.00 0.00 0.00 0.00 0.00 0.00 0.00 0.00 0.00 0.00 0.00 0.00 0.00 0.00 0.00 0.00 0.00 0.00
0.00 0.00 0.00 0.00 0.00 0.00 0.00 0.00 0.00 0.01 0.00 0.00 0.00 0.00 0.00 0.00 0.00 0.00 0.00 0.00 0.00 0.00 0.00 0.00 0.00 0.00 0.00 0.00 0.00 0.00 0.00 0.00 0.01 0.01 0.00 0.00 0.00 0.00 0.00 0.00 0.00 0.00 0.00 0.00
0.00 0.01 0.00 0.00 0.00 0.00 0.00 0.00 0.01 0.01 0.00 0.00 0.00 0.00 0.00 0.00 0.00 0.00 0.00 0.00 0.00 0.00 0.00 0.00 0.00 0.00 0.00 0.00 0.00 0.00 0.00 0.00 0.02 0.01 0.01 0.02 0.00 0.00 0.00 0.00 0.00 0.00 0.00 0.00
0.01 0.01 0.01 0.01 0.01 0.01 0.00 0.00 0.01 0.02 0.02 0.00 0.00 0.00 0.00 0.00 0.00 0.00 0.00 0.00 0.00 0.00 0.00 0.00 0.00 0.00 0.00 0.00 0.00 0.00 0.00 0.04 0.04 0.03 0.02 0.01 0.00 0.00 0.00 0.00 0.00 0.00 0.00 0.00
0.01 0.00 0.01 0.01 0.01 0.01 0.00 0.00 0.00 0.04 0.08 0.01 0.00 0.00 0.00 0.01 0.01 0.01 0.00 0.00 0.00 0.00 0.00 0.00 0.01 0.00 0.00 0.00 0.00 0.00 0.00 0.00 0.06 0.03 0.05 0.02 0.00 0.00 0.00 0.00 0.01 0.00 0.00 0.00
0.01 0.01 0.01 0.01 0.01 0.02 0.01 0.00 0.00 0.05 0.12 0.01 0.00 0.01 0.03 0.03 0.03 0.07 0.01 0.01 0.02 0.00 0.01 0.03 0.01 0.00 0.00 0.00 0.00 0.00 0.00 0.01 0.06 0.08 0.15 0.07 0.01 0.01 0.00 0.01 0.04 0.00 0.00 0.00
0.01 0.01 0.01 0.01 0.00 0.02 0.06 0.01 0.00 0.05 0.14 0.04 0.00 0.00 0.01 0.02 0.04 0.11 0.05 0.09 0.03 0.04 0.07 0.11 0.10 0.15 0.12 0.10 0.05 0.04 0.07 0.07 0.03 0.04 0.07 0.04 0.00 0.01 0.04 0.04 0.01 0.00 0.00 0.00
0.01 0.00 0.01 0.02 0.03 0.03 0.12 0.04 0.00 0.03 0.08 0.04 0.00 0.00 0.00 0.01 0.01 0.04 0.06 0.11 0.03 0.05 0.05 0.04 0.07 0.12 0.12 0.09 0.11 0.02 0.08 0.10 0.14 0.09 0.06 0.02 0.02 0.08 0.05 0.03 0.02 0.00 0.00 0.00
0.00 0.01 0.04 0.05 0.07 0.07 0.12 0.07 0.00 0.03 0.06 0.08 0.00 0.00 0.00 0.00 0.00 0.00 0.06 0.03 0.01 0.01 0.03 0.11 0.15 0.14 0.07 0.10 0.09 0.06 0.05 0.09 0.17 0.13 0.02 0.01 0.01 0.01 0.02 0.06 0.05 0.01 0.00 0.00
0.03 0.05 0.07 0.06 0.04 0.05 0.09 0.06 0.00 0.04 0.14 0.22 0.03 0.00 0.00 0.00 0.00 0.00 0.00 0.00 0.00 0.01 0.05 0.26 0.35 0.21 0.09 0.04 0.04 0.03 0.02 0.02 0.05 0.06 0.01 0.01 0.01 0.01 0.01 0.01 0.01 0.01 0.00 0.00
0.05 0.06 0.04 0.03 0.03 0.06 0.09 0.02 0.00 0.01 0.08 0.04 0.01 0.01 0.00 0.00 0.00 0.00 0.00 0.00 0.00 0.01 0.09 0.31 0.21 0.03 0.06 0.04 0.06 0.04 0.00 0.00 0.02 0.04 0.00 0.03 0.03 0.00 0.01 0.01 0.00 0.00 0.00 0.00
0.03 0.03 0.03 0.03 0.03 0.06 0.06 0.03 0.00 0.00 0.02 0.27 0.14 0.02 0.00 0.00 0.00 0.00 0.00 0.00 0.00 0.02 0.13 0.16 0.06 0.01 0.10 0.19 0.07 0.00 0.00 0.00 0.01 0.00 0.00 0.01 0.01 0.00 0.00 0.01 0.00 0.01 0.00 0.00
0.04 0.03 0.02 0.01 0.01 0.04 0.06 0.04 0.00 0.02 0.15 0.47 0.44 0.06 0.00 0.00 0.00 0.00 0.00 0.00 0.00 0.02 0.16 0.13 0.04 0.02 0.22 0.35 0.17 0.00 0.00 0.00 0.01 0.00 0.02 0.04 0.00 0.01 0.01 0.02 0.01 0.01 0.01 0.00
0.03 0.01 0.01 0.00 0.00 0.01 0.01 0.00 0.01 0.09 0.35 0.40 0.36 0.04 0.00 0.00 0.00 0.00 0.00 0.00 0.03 0.08 0.07 0.03 0.03 0.07 0.22 0.33 0.05 0.03 0.02 0.02 0.00 0.00 0.00 0.03 0.01 0.01 0.02 0.03 0.02 0.02 0.01 0.01
0.02 0.02 0.01 0.00 0.00 0.00 0.00 0.00 0.00 0.03 0.17 0.19 0.07 0.04 0.03 0.00 0.01 0.01 0.03 0.03 0.17 0.08 0.06 0.03 0.06 0.12 0.21 0.14 0.07 0.02 0.00 0.03 0.04 0.01 0.00 0.00 0.02 0.01 0.01 0.01 0.02 0.01 0.02 0.02
0.05 0.00 0.00 0.00 0.00 0.00 0.00 0.00 0.00 0.01 0.09 0.24 0.15 0.16 0.15 0.05 0.09 0.15 0.17 0.18 0.13 0.09 0.02 0.02 0.12 0.10 0.06 0.03 0.01 0.01 0.00 0.00 0.01 0.02 0.00 0.00 0.01 0.00 0.01 0.01 0.01 0.03 0.03 0.05
0.00 0.00 0.00 0.00 0.00 0.00 0.01 0.01 0.01 0.05 0.12 0.20 0.50 0.29 0.17 0.03 0.10 0.08 0.15 0.10 0.06 0.15 0.02 0.05 0.08 0.12 0.03 0.00 0.00 0.00 0.00 0.00 0.00 0.00 0.00 0.00 0.00 0.00 0.00 0.01 0.01 0.02 0.03 0.06
0.09 0.13 0.07 0.03 0.01 0.01 0.05 0.04 0.08 0.19 0.37 0.25 0.18 0.04 0.01 0.00 0.03 0.18 0.19 0.23 0.11 0.07 0.07 0.21 0.14 0.06 0.00 0.00 0.00 0.00 0.00 0.00 0.00 0.00 0.00 0.00 0.00 0.00 0.00 0.00 0.01 0.01 0.02 0.05
0.04 0.05 0.07 0.02 0.01 0.01 0.02 0.03 0.05 0.06 0.02 0.01 0.02 0.01 0.00 0.00 0.04 0.15 0.15 0.17 0.10 0.14 0.28 0.20 0.09 0.00 0.00 0.00 0.01 0.01 0.00 0.00 0.01 0.01 0.01 0.00 0.00 0.00 0.00 0.00 0.01 0.03 0.06 0.12
0.14 0.11 0.05 0.01 0.00 0.01 0.01 0.03 0.04 0.01 0.01 0.04 0.01 0.00 0.00 0.00 0.02 0.07 0.14 0.12 0.21 0.19 0.11 0.05 0.01 0.02 0.03 0.02 0.03 0.04 0.04 0.05 0.10 0.12 0.06 0.01 0.00 0.00 0.01 0.03 0.04 0.07 0.17 0.29
0.10 0.03 0.01 0.00 0.00 0.00 0.00 0.00 0.02 0.04 0.05 0.03 0.03 0.01 0.03 0.03 0.09 0.17 0.29 0.25 0.18 0.12 0.09 0.07 0.08 0.09 0.11 0.12 0.12 0.15 0.14 0.15 0.23 0.33 0.24 0.11 0.04 0.04 0.11 0.20 0.25 0.25 0.31 0.39
0.01 0.01 0.01 0.00 0.01 0.00 0.01 0.02 0.03 0.02 0.02 0.01 0.05 0.07 0.08 0.16 0.32 0.32 0.21 0.11 0.11 0.11 0.16 0.19 0.15 0.12 0.17 0.24 0.30 0.37 0.44 0.47 0.36 0.53 0.50 0.39 0.27 0.24 0.31 0.39 0.41 0.37 0.29 0.29
0.01 0.01 0.02 0.11 0.15 0.12 0.08 0.05 0.04 0.05 0.10 0.05 0.10 0.16 0.18 0.15 0.15 0.11 0.08 0.13 0.16 0.18 0.20 0.20 0.22 0.26 0.30 0.31 0.35 0.44 0.56 0.73 0.65 0.72 0.76 0.82 0.74 0.51 0.26 0.30 0.30 0.20 0.13 0.13

GFSNW_prec_precacc12_219.txt.gz
Total_Precipitation_Accumulation
0.00 0.00 0.00 0.00 0.00 0.00 0.00 0.00 0.00 0.00 0.00 0.00 0.00 0.00 0.00 0.00 0.00 0.00 0.00 0.00 0.00 0.00 0.00 0.00 0.00 0.00 0.00 0.00 0.00 0.00 0.00 0.00 0.00 0.00 0.00 0.00 0.00 0.00 0.00 0.00 0.00 0.00 0.00 0.00
0.00 0.00 0.00 0.00 0.00 0.00 0.00 0.00 0.00 0.00 0.00 0.00 0.00 0.00 0.00 0.00 0.00 0.00 0.00 0.00 0.00 0.00 0.00 0.00 0.00 0.00 0.00 0.00 0.00 0.00 0.00 0.00 0.00 0.00 0.00 0.00 0.00 0.00 0.00 0.00 0.00 0.00 0.00 0.00
0.00 0.00 0.00 0.00 0.00 0.00 0.00 0.00 0.00 0.00 0.00 0.00 0.00 0.00 0.00 0.00 0.00 0.00 0.00 0.00 0.00 0.00 0.00 0.00 0.00 0.00 0.00 0.00 0.00 0.00 0.00 0.00 0.00 0.00 0.00 0.00 0.00 0.00 0.00 0.00 0.00 0.00 0.00 0.00
0.00 0.00 0.00 0.00 0.00 0.00 0.00 0.00 0.00 0.00 0.00 0.00 0.00 0.00 0.00 0.00 0.00 0.00 0.00 0.00 0.00 0.00 0.00 0.00 0.00 0.00 0.00 0.00 0.00 0.00 0.00 0.00 0.00 0.00 0.00 0.00 0.00 0.00 0.00 0.00 0.00 0.00 0.00 0.00
0.00 0.00 0.00 0.00 0.00 0.00 0.00 0.00 0.00 0.00 0.00 0.00 0.00 0.00 0.00 0.00 0.00 0.00 0.00 0.00 0.00 0.00 0.00 0.00 0.00 0.00 0.00 0.00 0.00 0.00 0.00 0.00 0.00 0.00 0.00 0.00 0.00 0.00 0.00 0.00 0.00 0.00 0.00 0.00
0.00 0.01 0.00 0.00 0.00 0.00 0.00 0.00 0.00 0.00 0.00 0.00 0.00 0.00 0.00 0.00 0.00 0.00 0.00 0.00 0.00 0.00 0.00 0.00 0.00 0.00 0.00 0.00 0.00 0.00 0.00 0.00 0.01 0.01 0.00 0.00 0.00 0.00 0.00 0.00 0.00 0.00 0.00 0.00
0.00 0.01 0.00 0.00 0.01 0.00 0.00 0.00 0.00 0.00 0.00 0.00 0.00 0.00 0.00 0.00 0.00 0.00 0.00 0.00 0.00 0.00 0.00 0.00 0.00 0.00 0.00 0.00 0.00 0.00 0.00 0.00 0.03 0.02 0.01 0.02 0.00 0.00 0.00 0.00 0.00 0.00 0.00 0.00
0.01 0.01 0.01 0.01 0.01 0.00 0.00 0.00 0.00 0.00 0.00 0.00 0.00 0.00 0.00 0.00 0.00 0.00 0.00 0.00 0.00 0.00 0.00 0.00 0.00 0.00 0.00 0.00 0.00 0.00 0.00 0.07 0.06 0.03 0.02 0.01 0.00 0.00 0.00 0.00 0.00 0.00 0.00 0.00
0.01 0.00 0.01 0.01 0.02 0.02 0.01 0.00 0.00 0.02 0.07 0.00 0.00 0.00 0.00 0.00 0.00 0.00 0.00 0.00 0.00 0.00 0.00 0.00 0.00 0.00 0.00 0.00 0.00 0.00 0.00 0.01 0.09 0.03 0.05 0.01 0.00 0.00 0.00 0.00 0.02 0.00 0.00 0.00
0.01 0.01 0.01 0.01 0.01 0.04 0.05 0.01 0.01 0.08 0.18 0.02 0.00 0.00 0.00 0.01 0.01 0.05 0.01 0.00 0.01 0.00 0.01 0.01 0.00 0.00 0.00 0.00 0.00 0.00 0.00 0.01 0.06 0.09 0.16 0.07 0.01 0.01 0.00 0.01 0.05 0.00 0.00 0.00
0.00 0.01 0.01 0.00 0.02 0.08 0.10 0.02 0.01 0.09 0.21 0.06 0.00 0.00 0.00 0.02 0.02 0.06 0.03 0.08 0.02 0.02 0.04 0.02 0.02 0.02 0.02 0.02 0.01 0.01 0.04 0.05 0.03 0.02 0.04 0.02 0.00 0.01 0.04 0.04 0.01 0.00 0.00 0.00
0.01 0.01 0.01 0.03 0.05 0.08 0.14 0.03 0.01 0.04 0.08 0.04 0.00 0.00 0.00 0.00 0.00 0.01 0.06 0.09 0.01 0.05 0.06 0.03 0.04 0.03 0.02 0.02 0.03 0.00 0.01 0.02 0.02 0.04 0.03 0.01 0.02 0.08 0.05 0.03 0.02 0.00 0.00 0.00
0.03 0.02 0.04 0.06 0.07 0.07 0.12 0.05 0.01 0.03 0.06 0.03 0.00 0.00 0.00 0.00 0.00 0.00 0.06 0.01 0.01 0.03 0.05 0.17 0.16 0.12 0.05 0.06 0.03 0.01 0.00 0.00 0.03 0.03 0.01 0.00 0.00 0.01 0.02 0.06 0.05 0.01 0.00 0.00
0.04 0.05 0.06 0.05 0.03 0.04 0.09 0.03 0.01 0.05 0.10 0.10 0.00 0.00 0.00 0.00 0.00 0.00 0.00 0.00 0.00 0.03 0.08 0.32 0.31 0.19 0.07 0.04 0.03 0.02 0.02 0.02 0.02 0.03 0.01 0.00 0.00 0.00 0.01 0.01 0.01 0.01 0.00 0.00
0.04 0.04 0.03 0.02 0.02 0.06 0.08 0.01 0.00 0.00 0.07 0.05 0.00 0.00 0.00 0.00 0.00 0.00 0.00 0.00 0.00 0.01 0.11 0.25 0.14 0.03 0.07 0.06 0.06 0.04 0.02 0.05 0.07 0.05 0.00 0.01 0.00 0.00 0.00 0.00 0.00 0.00 0.00 0.00
0.02 0.03 0.02 0.01 0.02 0.05 0.04 0.02 0.00 0.00 0.02 0.16 0.05 0.00 0.00 0.00 0.00 0.00 0.00 0.00 0.00 0.01 0.10 0.10 0.02 0.01 0.19 0.26 0.05 0.02 0.06 0.03 0.02 0.03 0.00 0.00 0.00 0.00 0.00 0.00 0.00 0.00 0.00 0.00
0.04 0.03 0.01 0.00 0.00 0.04 0.05 0.04 0.03 0.10 0.18 0.57 0.41 0.06 0.00 0.00 0.00 0.00 0.00 0.00 0.00 0.02 0.15 0.11 0.03 0.03 0.42 0.41 0.18 0.05 0.02 0.01 0.01 0.00 0.04 0.07 0.00 0.00 0.00 0.00 0.00 0.00 0.01 0.00
0.03 0.01 0.00 0.00 0.00 0.01 0.00 0.01 0.04 0.09 0.23 0.22 0.14 0.01 0.00 0.00 0.01 0.00 0.00 0.00 0.00 0.03 0.05 0.04 0.05 0.17 0.40 0.40 0.11 0.03 0.02 0.02 0.00 0.00 0.00 0.03 0.01 0.00 0.00 0.00 0.01 0.02 0.01 0.01
0.02 0.01 0.00 0.00 0.00 0.00 0.00 0.00 0.00 0.02 0.13 0.16 0.08 0.05 0.06 0.03 0.01 0.00 0.00 0.01 0.02 0.01 0.05 0.05 0.11 0.20 0.26 0.21 0.11 0.02 0.00 0.04 0.05 0.01 0.00 0.00 0.00 0.00 0.00 0.00 0.01 0.02 0.00 0.00
0.02 0.00 0.00 0.00 0.00 0.00 0.00 0.00 0.00 0.01 0.12 0.23 0.12 0.15 0.18 0.05 0.00 0.00 0.00 0.02 0.02 0.04 0.01 0.11 0.22 0.16 0.11 0.03 0.01 0.01 0.02 0.02 0.02 0.08 0.05 0.02 0.02 0.00 0.00 0.00 0.00 0.00 0.01 0.00
0.00 0.00 0.00 0.00 0.00 0.00 0.00 0.00 0.00 0.00 0.00 0.08 0.26 0.19 0.05 0.00 0.00 0.00 0.01 0.02 0.03 0.09 0.05 0.28 0.23 0.16 0.03 0.00 0.00 0.01 0.02 0.02 0.02 0.05 0.06 0.04 0.05 0.05 0.03 0.01 0.00 0.00 0.00 0.00
0.04 0.06 0.04 0.03 0.01 0.00 0.00 0.00 0.00 0.01 0.05 0.10 0.05 0.01 0.00 0.00 0.00 0.02 0.01 0.08 0.08 0.12 0.17 0.29 0.16 0.06 0.00 0.01 0.02 0.03 0.04 0.07 0.09 0.09 0.16 0.14 0.09 0.04 0.01 0.00 0.00 0.00 0.00 0.03
0.00 0.01 0.06 0.02 0.01 0.00 0.00 0.00 0.00 0.00 0.01 0.02 0.02 0.01 0.00 0.00 0.00 0.01 0.04 0.07 0.10 0.19 0.28 0.19 0.09 0.01 0.01 0.04 0.06 0.05 0.01 0.04 0.10 0.14 0.17 0.12 0.05 0.02 0.02 0.02 0.04 0.07 0.09 0.06
0.03 0.08 0.05 0.01 0.00 0.00 0.00 0.00 0.00 0.02 0.06 0.10 0.04 0.02 0.00 0.00 0.01 0.03 0.08 0.09 0.22 0.15 0.06 0.02 0.01 0.07 0.08 0.07 0.07 0.10 0.09 0.11 0.20 0.31 0.25 0.12 0.11 0.09 0.10 0.11 0.12 0.10 0.06 0.10
0.08 0.03 0.01 0.00 0.00 0.00 0.00 0.01 0.04 0.09 0.11 0.05 0.02 0.01 0.02 0.02 0.06 0.09 0.15 0.16 0.12 0.06 0.06 0.07 0.10 0.13 0.16 0.15 0.16 0.20 0.21 0.24 0.33 0.48 0.33 0.23 0.20 0.16 0.15 0.16 0.12 0.08 0.10 0.25
0.02 0.01 0.00 0.00 0.00 0.00 0.01 0.02 0.05 0.04 0.02 0.00 0.02 0.03 0.05 0.07 0.15 0.17 0.11 0.06 0.05 0.07 0.12 0.13 0.10 0.09 0.16 0.18 0.21 0.24 0.28 0.33 0.39 0.56 0.55 0.43 0.35 0.31 0.26 0.17 0.16 0.18 0.21 0.35
0.01 0.00 0.00 0.01 0.06 0.08 0.07 0.07 0.09 0.05 0.04 0.01 0.05 0.08 0.09 0.09 0.11 0.06 0.04 0.06 0.09 0.11 0.13 0.16 0.16 0.18 0.18 0.16 0.18 0.21 0.23 0.29 0.39 0.45 0.56 0.63 0.56 0.31 0.13 0.22 0.28 0.24 0.24 0.28

GFSNW_prec_precacc12_222.txt.gz
Total_Precipitation_Accumulation
0.00 0.00 0.00 0.00 0.00 0.00 0.00 0.00 0.00 0.00 0.00 0.00 0.00 0.00 0.00 0.00 0.00 0.00 0.00 0.00 0.00 0.00 0.00 0.00 0.00 0.00 0.00 0.00 0.00 0.00 0.00 0.00 0.00 0.00 0.00 0.00 0.00 0.00 0.00 0.00 0.00 0.00 0.00 0.00
0.00 0.00 0.00 0.00 0.00 0.00 0.00 0.00 0.00 0.00 0.00 0.00 0.00 0.00 0.00 0.00 0.00 0.00 0.00 0.00 0.00 0.00 0.00 0.00 0.00 0.00 0.00 0.00 0.00 0.00 0.00 0.00 0.00 0.00 0.00 0.00 0.00 0.00 0.00 0.00 0.00 0.00 0.00 0.00
0.00 0.00 0.00 0.00 0.00 0.00 0.00 0.00 0.00 0.00 0.00 0.00 0.00 0.00 0.00 0.00 0.00 0.00 0.00 0.00 0.00 0.00 0.00 0.00 0.00 0.00 0.00 0.00 0.00 0.00 0.00 0.00 0.00 0.00 0.00 0.00 0.00 0.00 0.00 0.00 0.00 0.00 0.00 0.00
0.00 0.00 0.00 0.00 0.00 0.00 0.00 0.00 0.00 0.00 0.00 0.00 0.00 0.00 0.00 0.00 0.00 0.00 0.00 0.00 0.00 0.00 0.00 0.00 0.00 0.00 0.00 0.00 0.00 0.00 0.00 0.00 0.00 0.00 0.00 0.00 0.00 0.00 0.00 0.00 0.00 0.00 0.00 0.00
0.00 0.00 0.00 0.00 0.00 0.00 0.00 0.00 0.00 0.00 0.00 0.00 0.00 0.00 0.00 0.00 0.00 0.00 0.00 0.00 0.00 0.00 0.00 0.00 0.00 0.00 0.00 0.00 0.00 0.00 0.00 0.00 0.00 0.00 0.00 0.00 0.00 0.00 0.00 0.00 0.00 0.00 0.00 0.00
0.00 0.01 0.00 0.00 0.00 0.00 0.00 0.00 0.00 0.00 0.00 0.00 0.00 0.00 0.00 0.00 0.00 0.00 0.00 0.00 0.00 0.00 0.00 0.00 0.00 0.00 0.00 0.00 0.00 0.00 0.00 0.00 0.00 0.00 0.00 0.00 0.00 0.00 0.00 0.00 0.00 0.00 0.00 0.00
0.00 0.00 0.00 0.01 0.01 0.00 0.00 0.00 0.00 0.00 0.00 0.00 0.00 0.00 0.00 0.00 0.00 0.00 0.00 0.00 0.00 0.00 0.00 0.00 0.00 0.00 0.00 0.00 0.00 0.00 0.00 0.00 0.01 0.01 0.00 0.00 0.00 0.00 0.00 0.00 0.00 0.00 0.00 0.00
0.01 0.00 0.01 0.01 0.01 0.01 0.00 0.00 0.00 0.00 0.00 0.00 0.00 0.00 0.00 0.00 0.00 0.00 0.00 0.00 0.00 0.00 0.00 0.00 0.00 0.00 0.00 0.00 0.00 0.00 0.00 0.07 0.06 0.01 0.01 0.00 0.00 0.00 0.00 0.00 0.01 0.00 0.00 0.00
0.01 0.00 0.01 0.01 0.01 0.03 0.02 0.00 0.00 0.03 0.06 0.00 0.00 0.00 0.00 0.00 0.00 0.00 0.00 0.00 0.00 0.00 0.00 0.00 0.00 0.00 0.00 0.00 0.00 0.00 0.00 0.02 0.06 0.02 0.04 0.01 0.00 0.00 0.00 0.00 0.02 0.01 0.00 0.00
0.01 0.01 0.01 0.00 0.01 0.05 0.06 0.02 0.02 0.08 0.15 0.02 0.00 0.00 0.00 0.01 0.02 0.05 0.01 0.00 0.00 0.00 0.01 0.00 0.00 0.00 0.00 0.00 0.00 0.00 0.01 0.03 0.05 0.06 0.09 0.04 0.01 0.01 0.00 0.01 0.05 0.01 0.00 0.00
0.01 0.01 0.01 0.00 0.03 0.08 0.10 0.03 0.03 0.10 0.18 0.05 0.00 0.00 0.00 0.02 0.03 0.06 0.03 0.07 0.02 0.03 0.04 0.02 0.01 0.01 0.01 0.00 0.00 0.01 0.02 0.04 0.02 0.02 0.02 0.01 0.00 0.00 0.02 0.02 0.01 0.00 0.00 0.00
0.01 0.01 0.01 0.03 0.05 0.07 0.13 0.03 0.03 0.06 0.09 0.03 0.00 0.00 0.00 0.00 0.00 0.03 0.08 0.08 0.01 0.06 0.08 0.05 0.06 0.04 0.03 0.03 0.03 0.01 0.01 0.02 0.02 0.02 0.01 0.00 0.00 0.00 0.00 0.00 0.00 0.00 0.00 0.00
0.03 0.01 0.03 0.05 0.05 0.05 0.10 0.05 0.03 0.06 0.06 0.02 0.00 0.00 0.00 0.00 0.00 0.02 0.06 0.01 0.02 0.04 0.09 0.23 0.20 0.11 0.06 0.06 0.03 0.01 0.00 0.01 0.03 0.03 0.00 0.00 0.00 0.00 0.00 0.00 0.01 0.00 0.00 0.00
0.02 0.02 0.04 0.03 0.02 0.03 0.10 0.04 0.03 0.08 0.09 0.09 0.00 0.00 0.00 0.00 0.00 0.00 0.00 0.00 0.00 0.03 0.10 0.33 0.26 0.15 0.04 0.03 0.02 0.02 0.01 0.04 0.04 0.03 0.00 0.00 0.00 0.00 0.00 0.00 0.00 0.00 0.00 0.00
0.01 0.02 0.02 0.02 0.03 0.05 0.08 0.01 0.00 0.01 0.10 0.06 0.00 0.00 0.00 0.00 0.00 0.00 0.00 0.00 0.00 0.02 0.12 0.22 0.09 0.02 0.06 0.06 0.06 0.09 0.09 0.14 0.13 0.08 0.00 0.01 0.00 0.00 0.00 0.00 0.00 0.00 0.00 0.00
0.01 0.02 0.02 0.01 0.01 0.05 0.04 0.01 0.00 0.00 0.05 0.16 0.06 0.00 0.00 0.00 0.00 0.00 0.00 0.00 0.00 0.01 0.08 0.07 0.02 0.01 0.25 0.30 0.06 0.10 0.10 0.04 0.03 0.03 0.00 0.00 0.00 0.00 0.00 0.00 0.00 0.00 0.00 0.00
0.02 0.02 0.01 0.00 0.00 0.04 0.05 0.04 0.07 0.13 0.19 0.52 0.32 0.04 0.00 0.00 0.00 0.00 0.00 0.00 0.00 0.00 0.07 0.06 0.02 0.03 0.50 0.41 0.18 0.06 0.02 0.01 0.01 0.00 0.04 0.07 0.00 0.00 0.00 0.00 0.00 0.00 0.00 0.00
0.02 0.00 0.00 0.00 0.00 0.01 0.00 0.01 0.04 0.07 0.16 0.14 0.08 0.01 0.02 0.01 0.02 0.00 0.00 0.00 0.00 0.00 0.03 0.05 0.07 0.23 0.40 0.34 0.10 0.03 0.02 0.02 0.00 0.00 0.00 0.04 0.01 0.00 0.00 0.00 0.01 0.02 0.00 0.00
0.01 0.00 0.00 0.00 0.00 0.00 0.00 0.00 0.00 0.01 0.10 0.13 0.08 0.07 0.08 0.04 0.01 0.00 0.00 0.00 0.00 0.01 0.05 0.07 0.18 0.20 0.23 0.22 0.11 0.04 0.02 0.06 0.07 0.02 0.00 0.00 0.00 0.00 0.00 0.00 0.01 0.02 0.01 0.00
0.00 0.00 0.00 0.00 0.00 0.00 0.00 0.00 0.00 0.01 0.09 0.17 0.08 0.12 0.18 0.05 0.00 0.00 0.00 0.01 0.01 0.03 0.02 0.26 0.24 0.16 0.11 0.02 0.01 0.03 0.05 0.06 0.06 0.13 0.11 0.07 0.06 0.02 0.02 0.02 0.02 0.01 0.00 0.00
0.00 0.00 0.00 0.00 0.00 0.00 0.00 0.00 0.00 0.00 0.00 0.03 0.14 0.16 0.04 0.00 0.00 0.00 0.01 0.02 0.03 0.09 0.09 0.37 0.23 0.13 0.01 0.00 0.00 0.01 0.04 0.05 0.05 0.12 0.14 0.13 0.16 0.14 0.09 0.04 0.02 0.00 0.00 0.00
0.02 0.03 0.02 0.01 0.01 0.00 0.00 0.00 0.00 0.01 0.01 0.04 0.03 0.02 0.00 0.00 0.00 0.02 0.02 0.07 0.08 0.17 0.17 0.26 0.13 0.03 0.00 0.01 0.02 0.03 0.08 0.11 0.13 0.15 0.25 0.24 0.19 0.13 0.07 0.05 0.04 0.04 0.04 0.06
0.00 0.00 0.01 0.01 0.01 0.00 0.00 0.00 0.00 0.01 0.03 0.04 0.06 0.02 0.01 0.00 0.00 0.00 0.04 0.06 0.12 0.12 0.15 0.11 0.04 0.01 0.01 0.05 0.07 0.06 0.02 0.06 0.12 0.18 0.23 0.20 0.12 0.08 0.07 0.07 0.09 0.13 0.13 0.12
0.00 0.02 0.02 0.01 0.00 0.00 0.00 0.00 0.00 0.03 0.08 0.13 0.05 0.02 0.02 0.02 0.00 0.02 0.06 0.07 0.15 0.04 0.01 0.01 0.01 0.07 0.07 0.07 0.07 0.09 0.08 0.11 0.21 0.33 0.28 0.16 0.16 0.14 0.13 0.16 0.16 0.13 0.11 0.13
0.01 0.02 0.01 0.00 0.00 0.00 0.00 0.01 0.05 0.09 0.12 0.06 0.02 0.02 0.02 0.02 0.04 0.06 0.10 0.11 0.05 0.04 0.06 0.06 0.10 0.13 0.14 0.12 0.13 0.16 0.17 0.22 0.30 0.42 0.34 0.26 0.23 0.19 0.19 0.20 0.15 0.11 0.11 0.20
0.03 0.01 0.00 0.00 0.00 0.00 0.01 0.02 0.04 0.05 0.02 0.01 0.01 0.02 0.03 0.05 0.11 0.13 0.08 0.05 0.05 0.06 0.09 0.12 0.09 0.08 0.11 0.12 0.14 0.18 0.21 0.25 0.28 0.37 0.38 0.33 0.35 0.38 0.30 0.17 0.18 0.17 0.17 0.30
0.01 0.00 0.00 0.00 0.02 0.03 0.06 0.07 0.09 0.04 0.02 0.01 0.03 0.05 0.06 0.06 0.09 0.04 0.04 0.05 0.07 0.08 0.09 0.14 0.11 0.11 0.09 0.07 0.08 0.11 0.13 0.17 0.22 0.24 0.28 0.42 0.42 0.27 0.12 0.20 0.26 0.24 0.29 0.35

GFSNW_prec_precacc12_225.txt.gz
Total_Precipitation_Accumulation
0.00 0.00 0.00 0.00 0.00 0.00 0.00 0.00 0.00 0.00 0.00 0.00 0.00 0.00 0.00 0.00 0.00 0.00 0.00 0.00 0.00 0.00 0.00 0.00 0.00 0.00 0.00 0.00 0.00 0.00 0.00 0.00 0.00 0.00 0.00 0.00 0.00 0.00 0.00 0.01 0.01 0.00 0.00 0.01
0.00 0.00 0.00 0.00 0.00 0.00 0.00 0.00 0.00 0.00 0.00 0.00 0.00 0.00 0.00 0.00 0.00 0.00 0.00 0.00 0.00 0.00 0.00 0.00 0.00 0.00 0.00 0.00 0.00 0.00 0.00 0.00 0.00 0.00 0.00 0.00 0.00 0.00 0.00 0.00 0.00 0.00 0.00 0.01
0.00 0.00 0.00 0.00 0.00 0.00 0.00 0.00 0.00 0.00 0.00 0.00 0.00 0.00 0.00 0.00 0.00 0.00 0.00 0.00 0.00 0.00 0.00 0.00 0.00 0.00 0.00 0.00 0.00 0.00 0.00 0.00 0.00 0.00 0.00 0.00 0.00 0.00 0.00 0.01 0.01 0.00 0.00 0.00
0.00 0.00 0.00 0.00 0.00 0.00 0.00 0.00 0.00 0.00 0.00 0.00 0.00 0.00 0.00 0.00 0.00 0.00 0.00 0.00 0.00 0.00 0.00 0.00 0.00 0.00 0.00 0.00 0.00 0.00 0.00 0.00 0.00 0.00 0.00 0.00 0.00 0.00 0.00 0.00 0.00 0.00 0.00 0.00
0.00 0.00 0.00 0.00 0.00 0.00 0.00 0.00 0.00 0.00 0.00 0.00 0.00 0.00 0.00 0.00 0.00 0.00 0.00 0.00 0.00 0.00 0.00 0.00 0.00 0.00 0.00 0.00 0.00 0.00 0.00 0.00 0.00 0.00 0.00 0.00 0.00 0.00 0.00 0.00 0.00 0.00 0.00 0.00
0.00 0.00 0.00 0.00 0.00 0.00 0.00 0.00 0.00 0.00 0.00 0.00 0.00 0.00 0.00 0.00 0.00 0.00 0.00 0.00 0.00 0.00 0.00 0.00 0.00 0.00 0.00 0.00 0.00 0.00 0.00 0.00 0.00 0.00 0.00 0.00 0.00 0.00 0.00 0.00 0.00 0.00 0.01 0.01
0.01 0.00 0.00 0.01 0.00 0.00 0.00 0.00 0.00 0.00 0.00 0.00 0.00 0.00 0.00 0.00 0.00 0.00 0.00 0.00 0.00 0.00 0.00 0.00 0.00 0.00 0.00 0.00 0.00 0.00 0.00 0.00 0.01 0.01 0.00 0.00 0.00 0.00 0.00 0.00 0.00 0.00 0.00 0.00
0.00 0.00 0.00 0.00 0.01 0.01 0.00 0.00 0.00 0.00 0.00 0.00 0.00 0.00 0.00 0.00 0.00 0.00 0.00 0.00 0.00 0.00 0.00 0.00 0.00 0.00 0.00 0.00 0.00 0.00 0.00 0.03 0.03 0.02 0.01 0.00 0.00 0.00 0.00 0.00 0.01 0.00 0.00 0.00
0.00 0.00 0.01 0.01 0.01 0.03 0.02 0.00 0.00 0.02 0.05 0.00 0.00 0.00 0.00 0.00 0.00 0.00 0.00 0.00 0.00 0.00 0.00 0.00 0.00 0.00 0.00 0.00 0.00 0.00 0.01 0.03 0.09 0.07 0.06 0.02 0.00 0.00 0.00 0.00 0.01 0.00 0.00 0.00
0.01 0.01 0.01 0.01 0.01 0.05 0.06 0.02 0.03 0.07 0.14 0.01 0.00 0.00 0.00 0.01 0.02 0.04 0.01 0.00 0.00 0.00 0.01 0.01 0.00 0.00 0.00 0.00 0.00 0.00 0.01 0.02 0.05 0.06 0.07 0.04 0.00 0.00 0.00 0.01 0.01 0.00 0.00 0.00
0.01 0.01 0.01 0.01 0.03 0.07 0.08 0.03 0.04 0.10 0.16 0.03 0.00 0.00 0.00 0.01 0.02 0.05 0.03 0.05 0.02 0.03 0.05 0.03 0.01 0.01 0.01 0.00 0.00 0.00 0.00 0.02 0.01 0.01 0.02 0.00 0.00 0.00 0.00 0.00 0.00 0.00 0.00 0.00
0.01 0.01 0.01 0.02 0.03 0.06 0.09 0.02 0.03 0.07 0.09 0.02 0.00 0.00 0.00 0.00 0.00 0.05 0.08 0.07 0.02 0.08 0.10 0.07 0.10 0.06 0.04 0.03 0.02 0.00 0.01 0.02 0.03 0.04 0.02 0.00 0.00 0.00 0.00 0.00 0.00 0.00 0.00 0.00
0.02 0.01 0.01 0.03 0.02 0.03 0.10 0.04 0.04 0.06 0.06 0.01 0.00 0.00 0.00 0.00 0.00 0.04 0.06 0.01 0.03 0.05 0.13 0.26 0.24 0.11 0.04 0.04 0.02 0.01 0.01 0.02 0.07 0.06 0.01 0.00 0.00 0.00 0.00 0.00 0.00 0.00 0.00 0.00
0.03 0.01 0.01 0.01 0.02 0.04 0.10 0.04 0.03 0.08 0.08 0.08 0.00 0.00 0.00 0.00 0.00 0.00 0.01 0.00 0.02 0.04 0.10 0.28 0.21 0.10 0.03 0.02 0.02 0.04 0.10 0.07 0.07 0.03 0.00 0.01 0.00 0.00 0.00 0.00 0.00 0.00 0.00 0.00
0.01 0.00 0.00 0.01 0.03 0.05 0.05 0.00 0.00 0.03 0.13 0.08 0.00 0.00 0.00 0.00 0.00 0.00 0.01 0.00 0.02 0.03 0.10 0.14 0.05 0.02 0.07 0.06 0.06 0.17 0.15 0.18 0.17 0.11 0.01 0.02 0.01 0.00 0.00 0.00 0.00 0.00 0.00 0.00
0.00 0.00 0.00 0.00 0.01 0.04 0.03 0.01 0.00 0.00 0.06 0.14 0.05 0.00 0.00 0.01 0.00 0.00 0.01 0.00 0.00 0.02 0.03 0.03 0.02 0.01 0.30 0.28 0.10 0.16 0.10 0.04 0.03 0.04 0.00 0.01 0.00 0.00 0.00 0.00 0.00 0.00 0.00 0.00
0.00 0.00 0.00 0.00 0.00 0.03 0.04 0.03 0.09 0.12 0.16 0.36 0.21 0.02 0.02 0.01 0.00 0.00 0.00 0.00 0.00 0.00 0.02 0.02 0.02 0.05 0.48 0.37 0.17 0.06 0.01 0.00 0.00 0.00 0.04 0.06 0.00 0.00 0.00 0.00 0.00 0.01 0.00 0.00
0.00 0.00 0.00 0.00 0.00 0.00 0.00 0.01 0.03 0.06 0.10 0.09 0.05 0.01 0.03 0.01 0.02 0.00 0.00 0.00 0.00 0.00 0.01 0.05 0.14 0.24 0.31 0.26 0.07 0.01 0.00 0.00 0.00 0.00 0.01 0.03 0.02 0.01 0.01 0.01 0.02 0.03 0.01 0.00
0.00 0.00 0.00 0.00 0.00 0.00 0.00 0.00 0.00 0.01 0.07 0.08 0.06 0.07 0.07 0.05 0.01 0.00 0.00 0.00 0.00 0.01 0.06 0.18 0.20 0.18 0.19 0.18 0.09 0.05 0.04 0.08 0.06 0.01 0.00 0.00 0.01 0.02 0.03 0.04 0.04 0.06 0.02 0.00
0.00 0.00 0.00 0.00 0.00 0.00 0.00 0.00 0.00 0.01 0.07 0.11 0.06 0.09 0.15 0.05 0.00 0.00 0.00 0.01 0.01 0.03 0.06 0.40 0.21 0.14 0.09 0.01 0.03 0.07 0.09 0.09 0.09 0.17 0.16 0.14 0.11 0.06 0.06 0.08 0.07 0.05 0.03 0.01
0.00 0.00 0.00 0.00 0.00 0.00 0.00 0.00 0.00 0.00 0.00 0.02 0.04 0.12 0.03 0.00 0.00 0.00 0.01 0.01 0.02 0.08 0.12 0.37 0.19 0.06 0.01 0.00 0.00 0.01 0.05 0.07 0.09 0.17 0.19 0.18 0.24 0.21 0.15 0.08 0.06 0.04 0.05 0.06
0.01 0.02 0.01 0.00 0.00 0.00 0.00 0.00 0.00 0.00 0.00 0.01 0.02 0.02 0.01 0.01 0.00 0.01 0.01 0.05 0.07 0.20 0.12 0.15 0.04 0.02 0.01 0.01 0.02 0.03 0.08 0.14 0.16 0.18 0.29 0.29 0.24 0.18 0.12 0.09 0.09 0.10 0.09 0.11
0.00 0.00 0.00 0.00 0.00 0.00 0.00 0.00 0.00 0.00 0.03 0.05 0.08 0.02 0.01 0.01 0.01 0.00 0.02 0.05 0.11 0.10 0.02 0.02 0.04 0.02 0.01 0.05 0.06 0.04 0.02 0.06 0.12 0.17 0.24 0.22 0.14 0.10 0.11 0.10 0.13 0.16 0.16 0.17
0.00 0.00 0.00 0.00 0.00 0.00 0.00 0.00 0.00 0.03 0.09 0.13 0.05 0.02 0.02 0.03 0.00 0.02 0.04 0.05 0.10 0.02 0.01 0.02 0.02 0.07 0.06 0.05 0.04 0.06 0.06 0.09 0.16 0.26 0.24 0.17 0.17 0.15 0.16 0.20 0.20 0.17 0.17 0.17
0.00 0.01 0.00 0.00 0.00 0.00 0.00 0.01 0.04 0.06 0.09 0.05 0.02 0.02 0.01 0.01 0.02 0.04 0.07 0.08 0.03 0.03 0.04 0.05 0.09 0.11 0.10 0.07 0.08 0.11 0.12 0.15 0.20 0.25 0.23 0.22 0.20 0.17 0.21 0.24 0.18 0.14 0.15 0.21
0.02 0.01 0.00 0.00 0.00 0.00 0.00 0.01 0.03 0.03 0.01 0.01 0.01 0.01 0.01 0.03 0.07 0.09 0.06 0.03 0.03 0.04 0.06 0.07 0.07 0.05 0.05 0.04 0.06 0.11 0.13 0.16 0.18 0.23 0.24 0.21 0.26 0.34 0.31 0.16 0.17 0.18 0.19 0.29
0.01 0.00 0.00 0.00 0.00 0.01 0.04 0.04 0.05 0.02 0.01 0.00 0.02 0.03 0.03 0.03 0.06 0.03 0.02 0.03 0.04 0.05 0.05 0.10 0.08 0.06 0.02 0.01 0.01 0.02 0.05 0.08 0.11 0.12 0.15 0.22 0.20 0.12 0.08 0.17 0.24 0.24 0.29 0.33